カタログに戻る

STARLINK-5544

運用中通信VLEO
NORAD 55757·PAYLOAD·🇺🇸 United States

打ち上げ Mar 3, 2023 から Vandenberg Space Force Base

Loading…

次のパス (今後24時間)

TLE

最新Source: CelesTrak SupGP

元期: Sep 15, 2026, 02:42 UTC

1 55757C 23028S   26258.11298611  .00024619  00000+0  20632-2 0  2580
2 55757  70.0000 126.7928 0002687 274.5486 150.2770 14.98318790    15

AllMySatでSTARLINK-5544をリアルタイム追跡

Download on the App Store